Regional Weather Roundup
Issued by NWS

Home | Current Version | Previous Version | Text Only | Print | Product List | Glossary On
Versions: 1 2 3 4 5 6 7 8 9 10 11 12 13 14 15 16 17 18 19 20 21 22 23 24 25 26 27 28 29 30 31 32 33 34 35 36 37 38 39 40 41 42 43 44 45 46 47 48 49 50
000
ASUS43 KOAX 231502
RWRNE

WEATHER ROUNDUP FOR NEBRASKA
NATIONAL WEATHER SERVICE OMAHA NE
1000 AM CDT WED JUL 23 2014

NOTES: SATELLITE DATA IS BEING USED TO AUGMENT CLOUD COVER ABOVE
       12000 FEET.
       "FAIR" INDICATES FEW OR NO CLOUDS BELOW 12,000 FEET WITH NO
       SIGNIFICANT WEATHER AND/OR OBSTRUCTIONS TO VISIBILITY.

  * THESE STATIONS DO NOT REPORT WEATHER SUCH AS RAIN...SNOW OR FOG.

NEZ001>004-019>022-054>056-231600-
NEBRASKA PANHANDLE

CITY           SKY/WX    TMP DP  RH WIND       PRES   REMARKS
SCOTTSBLUFF    CLOUDY    72  60  66 SE14      30.33S
ALLIANCE       SUNNY     73  57  57 SE15G21   30.33S
CHADRON        SUNNY     77  59  53 S17       30.25F
KIMBALL        FOG       64  63  98 SE20      30.36F VSB 1
SIDNEY         SUNNY     73  61  65 SE17G26   30.35F
$$

NEZ057>060-069>072-079>082-231600-
SOUTHWEST NEBRASKA

CITY           SKY/WX    TMP DP  RH WIND       PRES   REMARKS
NORTH PLATTE   CLOUDY    65  62  90 SE14      30.26F
IMPERIAL       TSTM      63  60  90 E25G38    30.30F FOG
LEXINGTON      LGT RAIN  66  63  90 N7        30.35R
MCCOOK         CLOUDY    70  63  78 NE16G26   30.37R
OGALLALA       PTSUNNY   67  57  70 SE6       30.28F
$$

NEZ005>010-023>029-035>040-094-231600-
NORTH CENTRAL NEBRASKA

CITY           SKY/WX    TMP DP  RH WIND       PRES   REMARKS
VALENTINE      MOSUNNY   74  62  66 SE14      30.28S
AINSWORTH      MOSUNNY   73  60  61 SE14      30.30S
BROKEN BOW     CLOUDY    66  61  84 SE6       30.30F
O`NEILL        MOSUNNY   73  54  52 E12       30.31S
ORD            PTSUNNY   70  58  65 E5        30.30S
THEDFORD       CLOUDY    71  61  71 SE14      30.30R
$$

NEZ041-046>049-061>064-073>077-083>087-231600-
SOUTH CENTRAL NEBRASKA

CITY           SKY/WX    TMP DP  RH WIND       PRES   REMARKS
GRAND ISLAND   MOSUNNY   73  60  63 E8        30.29F
AURORA         SUNNY     73  61  65 E9        30.28S
HASTINGS       MOSUNNY   73  58  59 NE10      30.28R
HEBRON         MOSUNNY   74  60  59 NE9       30.23R
HOLDREGE       PTSUNNY   70  60  70 NE10      30.32R
KEARNEY *      PTSUNNY   70  57  64 NE8       30.32R
YORK           SUNNY     72  63  73 E9        30.28S
$$

NEZ011>018-030>034-042>045-231600-
NORTHEAST NEBRASKA

CITY           SKY/WX    TMP DP  RH WIND       PRES   REMARKS
NORFOLK        SUNNY     73  55  53 E3        30.30S
ALBION         SUNNY     71  57  59 E8        30.30F
BLAIR          SUNNY     71  49  46 NE7       30.25S
COLUMBUS *     SUNNY     55  55 100 E6        30.31R
FREMONT        SUNNY     74  60  60 N3        30.27S
TEKAMAH        SUNNY     74  60  61 N8        30.25F
WAYNE          SUNNY     72  61  68 E3        30.29F
$$

NEZ050>053-065>068-078-088>093-231600-
SOUTHEAST NEBRASKA

CITY           SKY/WX    TMP DP  RH WIND       PRES   REMARKS
LINCOLN        SUNNY     76  58  53 N8        30.27S
OMAHA EPPLEY   MOSUNNY   74  60  61 N7        30.24S
BEATRICE       SUNNY     73  62  67 NE3       30.25R
FALLS CITY     SUNNY     76  64  66 N6        30.20R
NEBRASKA CITY  MOSUNNY   72  60  66 N8        30.24R
PLATTSMOUTH    MOSUNNY   74  59  59 N3        30.25R
$$

NEZ044-045-051>053-067-231600-
OMAHA AREA

CITY           SKY/WX    TMP DP  RH WIND       PRES   REMARKS
OMAHA EPPLEY   MOSUNNY   74  60  61 N7        30.24S
BLAIR          SUNNY     71  49  46 NE7       30.25S
FREMONT        SUNNY     74  60  60 N3        30.27S
MILLARD        SUNNY     74  59  59 CALM      30.24S
OFFUTT AFB     SUNNY     75  61  61 N8        30.24R
PLATTSMOUTH    MOSUNNY   74  59  59 N3        30.25R
WAHOO          FAIR      74  60  61 NE5       30.26S
$$


USA.gov is the U.S. government's official web portal to all federal, state and local government web resources and services.